Location: Amsterdam
(30.7274°N, 84.4357°W)
Time: 07:37:36
(UTC+00:00)

Transit 2A Rocket - Pass Details

Date: 17 February 2026
Orbit: 583 x 900 km, 66.7° (Epoch: 11 March)

Event Time Altitude Azimuth Distance (km) Brightness Sun altitude
Rises 08:16:17 0° 318° (NW) 3,242 - -51.7°
Reaches altitude 10° 08:19:16 10° 303° (WNW) 2,249 - -51.1°
Maximum altitude 08:23:03 21° 255° (WSW) 1,543 - -50.3°
Drops below altitude 10° 08:26:36 10° 206° (SSW) 2,086 - -49.6°
Sets 08:29:16 0° 190° (S) 2,941 - -49.1°
